Regional Weather Roundup
Issued by NWS

Home | Current Version | Previous Version | Graphics & Text | Print | Product List | Glossary On
Versions: 1 2 3 4 5 6 7 8 9 10 11 12 13 14 15 16 17 18 19 20 21 22 23 24 25 26 27 28 29 30 31 32 33 34 35 36 37 38 39 40 41 42 43 44 45 46 47 48 49 50
000
ASUS45 KABQ 161501
RWRNM
NEW MEXICO REGIONAL WEATHER ROUNDUP
NATIONAL WEATHER SERVICE ALBUQUERQUE NM
900 AM MDT MON OCT 16 2017

NOTE: "FAIR" MEANS FEW OR NO CLOUDS BELOW 12,000 FEET AGL WITH NO
       SIGNIFICANT WEATHER OR OBSTRUCTIONS TO VISION.

      THIS PRODUCT IS RELEASED AS TWO VERSIONS.  ONE VERSION NEAR
      THE TOP OF THE HOUR CONTAINING PRELIMINARY DATA FROM ALBUQUERQUE
      AND OTHER STATIONS.  A FINAL VERSION WITH ADDITIONAL DATA IS
      ISSUED ABOUT 10 MINUTES AFTER THE HOUR.

NMZ501-503-504-510>518-161600-
NORTHWEST PLATEAU/NORTHCENTRAL MOUNTAINS

CITY           SKY/WX    TMP DP  RH WIND       PRES   REMARKS
FARMINGTON     FAIR      38 N/A N/A SE6       30.50R WCI  33
LOS ALAMOS     FAIR      42  21  44 CALM      30.56R
SANTA FE       FAIR      44  21  40 N16       30.52R
TAOS           FAIR      37  18  46 CALM      30.59R
ANGEL FIRE     FAIR      29  21  70 CALM      30.60S

$$
NMZ402-403-502-505>509-161600-
WESTCENTRAL MOUNTAINS/SOUTHWEST MOUNTAINS

CITY           SKY/WX    TMP DP  RH WIND       PRES   REMARKS
GALLUP         FAIR      37  14  38 CALM      30.52R
GRANTS         FAIR      35  17  47 NW6       30.55R WCI  30
SILVER CITY    FAIR      56  32  39 SE3       30.49R

$$
NMZ407-409-411-412-161600-
SOUTHERN DESERTS

CITY           SKY/WX    TMP DP  RH WIND       PRES   REMARKS
DEMING         FAIR      56  30  37 E9        30.46R
LAS CRUCES     FAIR      60  29  30 CALM      30.48R
HOLLOMAN AFB   FAIR      55  31  41 CALM      30.50R
ALAMOGORDO     FAIR      54  28  37 NW3       30.49R
T OR C         FAIR      54  26  34 N7        30.48R

$$
NMZ519>523-161600-
CENTRAL VALLEYS/CENTRAL HIGHLANDS

CITY           SKY/WX    TMP DP  RH WIND       PRES   REMARKS
ALBUQUERQUE    FAIR      47  26  44 N5        30.50R
DOUBLE EAGLE   SUNNY     50  23  34 N7        30.52R
MORIARTY ARPT  FAIR      37  32  81 CALM      30.53R
CLINES CORNERS NOT AVBL
BELEN          FAIR      46  24  42 CALM      30.51R
SOCORRO        FAIR      47  24  39 N3        30.50R

$$
NMZ524>526-539-540-161600-
SOUTHCENTRAL MOUNTAINS

CITY           SKY/WX    TMP DP  RH WIND       PRES   REMARKS
RUIDOSO        FAIR      50  23  34 S5        30.56R

$$
NMZ527>531-161600-
NORTHEAST HIGHLANDS/NORTHEAST PLAINS

CITY           SKY/WX    TMP DP  RH WIND       PRES   REMARKS
LAS VEGAS      FAIR      45  22  40 W3        30.48R
RATON          FAIR      38  29  70 NE5       30.45S WCI  34
CLAYTON        FAIR      49  33  54 S17       30.40S

$$
NMZ532>537-161600-
EASTCENTRAL PLAINS

CITY           SKY/WX    TMP DP  RH WIND       PRES   REMARKS
SANTA ROSA     FAIR      47  36  65 S9        30.45S
TUCUMCARI      FAIR      54  33  45 SW13      30.43R
CANNON AFB     SUNNY     49  40  70 SW9       30.49R
CLOVIS AIRPORT   N/A     50  37  61 SW9       30.49

$$
NMZ028-029-538-161600-
SOUTHEAST PLAINS

CITY           SKY/WX    TMP DP  RH WIND       PRES   REMARKS
ROSWELL        FAIR      50  42  74 CALM      30.49R
ARTESIA        FAIR      50  36  57 CALM      30.50R
CARLSBAD       FAIR      51  40  65 CALM      30.49R
HOBBS          SUNNY     54  32  43 S5        30.50R


$$




USA.gov is the U.S. government's official web portal to all federal, state and local government web resources and services.